Time,TemperatureF,DewpointF,PressureIn,WindDirection,WindDirectionDegrees,WindSpeedMPH,WindSpeedGustMPH,Humidity,HourlyPrecipIn,Conditions,Clouds,dailyrainin,SolarRadiationWatts/m^2,SoftwareType,DateUTC
2013-04-20 00:01:00,77.8,75.0,30.03,SSW,196,1.0,-999.0,90,-99.99,,,0.00,0,weatherlink.com 1.10,2013-04-20 04:01:00,
2013-04-20 00:16:00,76.7,73.0,30.02,ESE,119,0.0,-999.0,88,-99.99,,,0.00,0,weatherlink.com 1.10,2013-04-20 04:16:00,
2013-04-20 00:31:00,76.7,73.0,30.02,South,185,0.0,-999.0,88,-99.99,,,0.00,0,weatherlink.com 1.10,2013-04-20 04:31:00,
2013-04-20 00:46:00,77.1,74.0,30.02,ENE,62,6.0,-999.0,89,-99.99,,,0.00,0,weatherlink.com 1.10,2013-04-20 04:46:00,
2013-04-20 01:01:00,76.7,73.0,30.00,ENE,76,2.0,-999.0,88,-99.99,,,0.00,0,weatherlink.com 1.10,2013-04-20 05:01:00,
2013-04-20 01:16:00,76.6,73.0,30.00,East,94,0.0,-999.0,88,-99.99,,,0.00,0,weatherlink.com 1.10,2013-04-20 05:16:00,
2013-04-20 01:31:00,77.2,74.0,30.00,SSE,153,0.0,-999.0,88,-99.99,,,0.00,0,weatherlink.com 1.10,2013-04-20 05:31:00,
2013-04-20 01:46:00,78.0,74.0,29.99,North,349,0.0,-999.0,88,-99.99,,,0.00,0,weatherlink.com 1.10,2013-04-20 05:46:00,
2013-04-20 02:01:00,78.5,74.0,29.99,East,100,0.0,-999.0,87,-99.99,,,0.00,0,weatherlink.com 1.10,2013-04-20 06:01:00,
2013-04-20 02:16:00,78.7,75.0,29.98,NNE,17,0.0,-999.0,87,-99.99,,,0.00,0,weatherlink.com 1.10,2013-04-20 06:16:00,
2013-04-20 02:31:00,78.8,75.0,29.97,NE,55,0.0,-999.0,87,-99.99,,,0.00,0,weatherlink.com 1.10,2013-04-20 06:31:00,
2013-04-20 02:46:00,77.8,74.0,29.98,ESE,117,0.0,-999.0,89,-99.99,,,0.01,0,weatherlink.com 1.10,2013-04-20 06:46:00,
2013-04-20 03:01:00,77.2,74.0,29.97,ESE,108,0.0,-999.0,90,-99.99,,,0.01,0,weatherlink.com 1.10,2013-04-20 07:01:00,
2013-04-20 03:16:00,77.3,74.0,29.97,East,98,0.0,-999.0,90,-99.99,,,0.01,0,weatherlink.com 1.10,2013-04-20 07:16:00,
2013-04-20 03:31:00,77.3,74.0,29.96,East,98,0.0,-999.0,90,-99.99,,,0.01,0,weatherlink.com 1.10,2013-04-20 07:31:00,
2013-04-20 03:46:00,77.5,74.0,29.96,SSE,161,0.0,-999.0,90,-99.99,,,0.01,0,weatherlink.com 1.10,2013-04-20 07:46:00,
2013-04-20 04:01:00,77.5,74.0,29.96,SSE,151,0.0,-999.0,88,-99.99,,,0.01,0,weatherlink.com 1.10,2013-04-20 08:01:00,
2013-04-20 04:16:00,77.5,74.0,29.96,SSE,150,0.0,-999.0,88,-99.99,,,0.01,0,weatherlink.com 1.10,2013-04-20 08:16:00,
2013-04-20 04:31:00,77.3,73.0,29.96,West,260,0.0,-999.0,87,-99.99,,,0.01,0,weatherlink.com 1.10,2013-04-20 08:31:00,
2013-04-20 04:46:00,76.7,72.0,29.97,West,259,0.0,-999.0,86,-99.99,,,0.01,0,weatherlink.com 1.10,2013-04-20 08:46:00,
2013-04-20 05:01:00,76.4,72.0,29.97,West,259,0.0,-999.0,87,-99.99,,,0.01,0,weatherlink.com 1.10,2013-04-20 09:01:00,
2013-04-20 05:16:00,76.4,72.0,29.97,West,259,0.0,-999.0,87,-99.99,,,0.01,0,weatherlink.com 1.10,2013-04-20 09:16:00,
2013-04-20 05:31:00,76.4,73.0,29.98,West,259,0.0,-999.0,88,-99.99,,,0.01,0,weatherlink.com 1.10,2013-04-20 09:31:00,
2013-04-20 05:46:00,76.6,73.0,29.97,West,259,0.0,-999.0,89,-99.99,,,0.01,0,weatherlink.com 1.10,2013-04-20 09:46:00,
2013-04-20 06:01:00,76.7,74.0,29.96,West,259,0.0,-999.0,90,-99.99,,,0.01,0,weatherlink.com 1.10,2013-04-20 10:01:00,
2013-04-20 06:16:00,76.2,74.0,29.96,West,259,0.0,-999.0,91,-99.99,,,0.01,0,weatherlink.com 1.10,2013-04-20 10:16:00,
2013-04-20 06:31:00,76.1,73.0,29.97,West,259,0.0,-999.0,91,-99.99,,,0.01,0,weatherlink.com 1.10,2013-04-20 10:31:00,
2013-04-20 06:46:00,76.2,74.0,29.98,West,259,0.0,-999.0,91,-99.99,,,0.01,0,weatherlink.com 1.10,2013-04-20 10:46:00,
2013-04-20 07:01:00,76.2,74.0,29.98,West,259,0.0,-999.0,91,-99.99,,,0.01,9,weatherlink.com 1.10,2013-04-20 11:01:00,
2013-04-20 07:16:00,76.1,74.0,29.98,West,259,0.0,-999.0,92,-99.99,,,0.01,26,weatherlink.com 1.10,2013-04-20 11:16:00,
2013-04-20 07:31:00,76.3,74.0,29.99,West,259,0.0,-999.0,92,-99.99,,,0.01,77,weatherlink.com 1.10,2013-04-20 11:31:00,
2013-04-20 07:46:00,77.1,74.0,29.99,West,259,0.0,-999.0,91,-99.99,,,0.01,70,weatherlink.com 1.10,2013-04-20 11:46:00,
2013-04-20 08:01:00,77.7,75.0,30.00,West,259,0.0,-999.0,90,-99.99,,,0.01,86,weatherlink.com 1.10,2013-04-20 12:01:00,
2013-04-20 08:16:00,78.6,75.0,30.00,West,259,0.0,-999.0,89,-99.99,,,0.01,236,weatherlink.com 1.10,2013-04-20 12:16:00,
2013-04-20 08:31:00,78.9,74.0,30.00,West,259,0.0,-999.0,86,-99.99,,,0.01,345,weatherlink.com 1.10,2013-04-20 12:31:00,
2013-04-20 08:46:00,79.8,74.0,30.00,WSW,242,3.0,-999.0,83,-99.99,,,0.01,188,weatherlink.com 1.10,2013-04-20 12:46:00,
2013-04-20 09:01:00,79.3,74.0,30.00,WSW,240,0.0,-999.0,84,-99.99,,,0.01,114,weatherlink.com 1.10,2013-04-20 13:01:00,
2013-04-20 09:16:00,80.2,75.0,30.00,WSW,255,1.0,-999.0,84,-99.99,,,0.01,239,weatherlink.com 1.10,2013-04-20 13:16:00,
2013-04-20 09:31:00,81.8,75.0,30.00,WSW,243,0.0,-999.0,80,-99.99,,,0.01,578,weatherlink.com 1.10,2013-04-20 13:31:00,
2013-04-20 09:47:00,83.0,76.0,30.01,WSW,244,2.0,-999.0,78,-99.99,,,0.01,691,weatherlink.com 1.10,2013-04-20 13:47:00,
2013-04-20 10:02:00,83.6,75.0,30.01,West,261,0.0,-999.0,76,-99.99,,,0.01,645,weatherlink.com 1.10,2013-04-20 14:02:00,
2013-04-20 10:17:00,83.3,75.0,30.01,SW,236,1.0,-999.0,75,-99.99,,,0.01,190,weatherlink.com 1.10,2013-04-20 14:17:00,
2013-04-20 10:32:00,82.3,74.0,30.02,WSW,251,0.0,-999.0,76,-99.99,,,0.01,200,weatherlink.com 1.10,2013-04-20 14:32:00,
2013-04-20 10:47:00,85.5,75.0,30.02,WSW,245,0.0,-999.0,71,-99.99,,,0.01,814,weatherlink.com 1.10,2013-04-20 14:47:00,
2013-04-20 11:02:00,86.6,74.0,30.02,SSW,205,1.0,-999.0,67,-99.99,,,0.01,281,weatherlink.com 1.10,2013-04-20 15:02:00,
2013-04-20 11:17:00,84.8,74.0,30.03,WSW,249,0.0,-999.0,70,-99.99,,,0.01,1007,weatherlink.com 1.10,2013-04-20 15:17:00,
2013-04-20 11:32:00,86.5,73.0,30.03,West,270,0.0,-999.0,64,-99.99,,,0.01,939,weatherlink.com 1.10,2013-04-20 15:32:00,
2013-04-20 11:47:00,86.0,75.0,30.03,ENE,67,0.0,-999.0,70,-99.99,,,0.01,239,weatherlink.com 1.10,2013-04-20 15:47:00,
2013-04-20 12:02:00,84.7,76.0,30.02,SE,124,2.0,-999.0,75,-99.99,,,0.01,283,weatherlink.com 1.10,2013-04-20 16:02:00,
2013-04-20 12:17:00,85.0,76.0,30.02,SE,140,2.0,-999.0,74,-99.99,,,0.01,1055,weatherlink.com 1.10,2013-04-20 16:17:00,
2013-04-20 12:32:00,88.8,78.0,30.01,ESE,121,0.0,-999.0,70,-99.99,,,0.01,990,weatherlink.com 1.10,2013-04-20 16:32:00,
2013-04-20 12:47:00,87.2,76.0,30.00,ENE,78,1.0,-999.0,70,-99.99,,,0.01,599,weatherlink.com 1.10,2013-04-20 16:47:00,
2013-04-20 13:02:00,86.4,76.0,30.00,SE,136,0.0,-999.0,71,-99.99,,,0.01,346,weatherlink.com 1.10,2013-04-20 17:02:00,
2013-04-20 13:17:00,88.7,77.0,30.00,ESE,109,0.0,-999.0,68,-99.99,,,0.01,983,weatherlink.com 1.10,2013-04-20 17:17:00,
2013-04-20 13:32:00,87.5,76.0,29.99,ESE,121,0.0,-999.0,69,-99.99,,,0.01,411,weatherlink.com 1.10,2013-04-20 17:32:00,
2013-04-20 13:47:00,87.8,76.0,29.99,East,95,4.0,-999.0,69,-99.99,,,0.01,526,weatherlink.com 1.10,2013-04-20 17:47:00,
2013-04-20 14:02:00,86.9,76.0,29.99,East,96,1.0,-999.0,71,-99.99,,,0.01,675,weatherlink.com 1.10,2013-04-20 18:02:00,
2013-04-20 14:17:00,87.8,77.0,29.99,ESE,108,0.0,-999.0,70,-99.99,,,0.01,947,weatherlink.com 1.10,2013-04-20 18:17:00,
2013-04-20 14:32:00,88.0,76.0,29.98,East,80,0.0,-999.0,68,-99.99,,,0.01,895,weatherlink.com 1.10,2013-04-20 18:32:00,
2013-04-20 14:47:00,86.7,76.0,29.97,ESE,113,0.0,-999.0,70,-99.99,,,0.01,413,weatherlink.com 1.10,2013-04-20 18:47:00,
2013-04-20 15:02:00,85.5,75.0,29.96,ESE,104,0.0,-999.0,70,-99.99,,,0.01,237,weatherlink.com 1.10,2013-04-20 19:02:00,
2013-04-20 15:17:00,87.2,77.0,29.96,SE,124,0.0,-999.0,71,-99.99,,,0.01,302,weatherlink.com 1.10,2013-04-20 19:17:00,
2013-04-20 15:32:00,87.1,76.0,29.95,ESE,112,2.0,-999.0,69,-99.99,,,0.01,817,weatherlink.com 1.10,2013-04-20 19:32:00,
2013-04-20 15:47:00,87.6,76.0,29.95,West,269,0.0,-999.0,68,-99.99,,,0.01,366,weatherlink.com 1.10,2013-04-20 19:47:00,
2013-04-20 16:02:00,88.1,77.0,29.95,SE,143,0.0,-999.0,69,-99.99,,,0.01,835,weatherlink.com 1.10,2013-04-20 20:02:00,
2013-04-20 16:17:00,86.9,76.0,29.94,ESE,123,1.0,-999.0,70,-99.99,,,0.01,369,weatherlink.com 1.10,2013-04-20 20:17:00,
2013-04-20 16:32:00,85.6,76.0,29.93,ESE,115,2.0,-999.0,72,-99.99,,,0.01,381,weatherlink.com 1.10,2013-04-20 20:32:00,
2013-04-20 16:47:00,84.4,74.0,29.93,SE,138,1.0,-999.0,70,-99.99,,,0.01,186,weatherlink.com 1.10,2013-04-20 20:47:00,
2013-04-20 17:02:00,83.2,71.0,29.94,East,92,0.0,-999.0,66,-99.99,,,0.01,42,weatherlink.com 1.10,2013-04-20 21:02:00,
2013-04-20 22:40:00,74.3,72.0,30.06,ENE,65,0.0,-999.0,91,-99.99,,,1.25,0,weatherlink.com 1.10,2013-04-21 02:40:00,
2013-04-20 22:47:00,74.3,71.0,30.06,ENE,65,0.0,-999.0,90,-99.99,,,1.25,0,weatherlink.com 1.10,2013-04-21 02:47:00,
2013-04-20 23:02:00,74.5,71.0,30.06,ENE,65,0.0,-999.0,89,-99.99,,,1.26,0,weatherlink.com 1.10,2013-04-21 03:02:00,
2013-04-20 23:18:00,74.1,71.0,30.07,ENE,65,0.0,-999.0,90,-99.99,,,1.26,0,weatherlink.com 1.10,2013-04-21 03:18:00,
2013-04-20 23:33:00,73.7,71.0,30.07,ENE,65,0.0,-999.0,92,-99.99,,,1.26,0,weatherlink.com 1.10,2013-04-21 03:33:00,
2013-04-20 23:48:00,73.9,72.0,30.07,ENE,65,0.0,-999.0,92,-99.99,,,1.26,0,weatherlink.com 1.10,2013-04-21 03:48:00,